This demonstration page uses our WeatherBlox Daily Observations layout. Learn more.

41.55636, -103.73856

Hourly Observations for August 30, 2015

Temp ( °F °C ) Dew Point ( °F °C ) Humidity (%) Winds ( mph kmh ) Pressure ( in mb ) Visibility ( mi km ) Precip ( " mm )
12:53 am 00:53 Clear 75 23.9 41 5 29 29 S 14 22 29.85 1011 9 14.48406 0 0
1:53 am 01:53 Clear 74 23.3 40 4.4 29 29 SSE 10 17 29.83 1010 9 14.48406 0 0
2:53 am 02:53 Clear 74 23.3 40 4.4 29 29 S 18 30 29.82 1010 9 14.48406 0 0
3:53 am 03:53 Clear 70 21.1 41 5 35 35 S 9 15 29.82 1010 9 14.48406 0 0
4:53 am 04:53 Clear 68 20 42 5.6 39 39 SE 6 9 29.82 1010 9 14.48406 0 0
5:53 am 05:53 Clear 60 15.6 45 7.2 58 58 ESE 6 9 29.84 1010 9 14.48406 0 0
6:53 am 06:53 Sunny 58 14.4 48 8.9 70 70 E 8 13 29.85 1011 7 11.26538 0 0
7:43 am 07:43 Mostly Sunny 64 17.8 48 8.9 56 56 ESE 5 7 29.83 1010 7 11.26538 0 0
7:53 am 07:53 Sunny 64 17.8 48 8.9 56 56 E 5 7 29.87 1012 7 11.26538 0 0
8:53 am 08:53 Sunny 70 21.1 47 8.3 44 44 ESE 9 15 29.86 1011 8 12.87472 0 0
9:53 am 09:53 Sunny 76 24.4 48 8.9 37 37 ESE 7 11 29.85 1011 8 12.87472 0 0
10:53 am 10:53 Sunny 80 26.7 48 8.9 33 33 SE 7 11 29.84 1011 9 14.48406 0 0
11:53 am 11:53 Sunny 85 29.4 53 11.7 33 33 E 9 15 29.8 1009 9 14.48406 0 0
12:53 pm 12:53 Sunny 89 31.7 55 12.8 31 31 E 12 19 29.75 1008 9 14.48406 0 0
1:53 pm 13:53 Sunny 95 35 51 10.6 23 23 E 6 9 29.73 1007 10 16.0934 0 0
2:53 pm 14:53 Sunny 97 36.1 45 7.2 17 17 E 10 17 29.7 1006 10 16.0934 0 0
3:53 pm 15:53 Sunny 97 36.1 47 8.3 18 18 E 12 19 29.68 1005 10 16.0934 0 0
4:53 pm 16:53 Sunny 95 35 51 10.6 23 23 E 10 17 29.67 1005 10 16.0934 0 0
5:53 pm 17:53 Sunny 91 32.8 54 12.2 28 28 E 6 9 29.67 1005 10 16.0934 0 0
6:53 pm 18:53 Sunny 85 29.4 59 15 42 42 E 6 9 29.68 1005 9 14.48406 0 0
7:53 pm 19:53 Clear 84 28.9 49 9.4 30 30 NW 9 15 29.69 1005 10 16.0934 0 0
8:53 pm 20:53 Clear 80 26.7 49 9.4 34 34 NW 13 20 29.72 1006 10 16.0934 0 0
9:53 pm 21:53 Clear 77 25 51 10.6 40 40 Calm 29.72 1006 10 16.0934 0 0
10:53 pm 22:53 Clear 75 23.9 51 10.6 43 43 undefined N/A 29.72 1007 10 16.0934 0 0.0254
11:53 pm 23:53 Mostly Clear 80 26.7 47 8.3 31 31 SW 8 13 29.74 1007 10 16.0934 0 0

Powered by AerisWeather